Regional Weather Roundup
Issued by NWS

Home | Current Version | Previous Version | Text Only | Print | Product List | Glossary On
Versions: 1 2 3 4 5 6 7 8 9 10 11 12 13 14 15 16 17 18 19 20 21 22 23 24 25 26 27 28 29 30 31 32 33 34 35 36 37 38 39 40 41 42 43 44 45 46 47 48 49 50
000
ASPQ40 PGUM 162012
RWRPQ
WEATHER ROUNDUP FOR THE MARIANAS AND MICRONESIA
NATIONAL WEATHER SERVICE TIYAN GU
600 AM CHST TUE JAN 17 2017

GUZ001>004-162100-
MARIANA ISLANDS-

CITY           SKY/WX    TMP DP  RH WIND       PRES   REMARKS
GUAM AIRPORT   CLEAR     75  75 100 NE3       29.90R
ANDERSEN AFB   RAIN      75  75 100 SE7       29.91R FOG
ROTA AIRPORT   MOCLDY    75  75 100 E3        29.90
TINIAN AP      NOT AVBL
SAIPAN AP      LGT RAIN  75  75 100 NE15      29.90R FOG

$$

PMZ161-162100-
REPUBLIC OF PALAU-

CITY           SKY/WX    TMP DP  RH WIND       PRES   REMARKS
KOROR AP       MOCLDY    77  77 100 CALM      29.81R
KOROR WSO      MOCLDY    79  77  94 CALM      29.82R

$$

PMZ171>174-162100-
FEDERATED STATES OF MICRONESIA-

CITY           SKY/WX    TMP DP  RH WIND       PRES   REMARKS
YAP AIRPORT    NOT AVBL
CHUUK AP       MOCLDY    82  77  83 E8        29.85R HX  91
POHNPEI AP     CLOUDY    77  75  94 S5        29.87
POHNPEI WSO    PTCLDY    73  73 100 SE6       29.90R
KOSRAE AP      NOT AVBL

$$

PMZ181-162100-
REPUBLIC OF THE MARSHALL ISLANDS-

CITY           SKY/WX    TMP DP  RH WIND       PRES   REMARKS
KWAJALEIN AP   MOSUNNY   81  75  83 NE15      29.89R
MAJURO AP      NOT AVBL
MAJURO WSO     CLOUDY    82  75  78 NE9       29.91R

$$




USA.gov is the U.S. government's official web portal to all federal, state and local government web resources and services.